Content
SEND FEEDBACK

Daily
Averages
Monthly
Summary
United Kingdom

HINDHEAD, ENGLAND


Home > Europe > United Kingdom > England
Elevation: 402 feet     Latitude: 51 14N     Longitude: 000 57W

WEATHER
 
SELECT A DAY
Number of Records: 63,185;   Date Range: 8/10/96 - 10/20/14
 
SHARE

PRINT THIS DATA

[ ← Previous Day ]
WEATHER ALMANAC - SEPTEMBER 25, 2013
[ Next Day → ]
[ °C ]   °F
Weather ElementAverageHighLow
Temperature60.4 °F70 °F (3:50 pm)55 °F (6:50 am)
Dewpoint57.4 °F61 °F (6:50 pm)53.6 °F (2:22 am)
Humidity90.2 %100 % (12:50 am)55 % (3:50 pm)
Barometer29.87 in29.92 in (12:50 am)29.83 in (2:50 pm)
Wind Speed2.3 mph6.9 mph (6:14 pm)
Weather ElementAverage
Visibility2.6 mi
Wind DirectionSSE (173.8 °)

Weather ElementTotal
Precipitation---
Heating Degree Days2.5 (Base 65)
Growing Degree Days12.5 (Base 50)
Averaged from 42 records on September 25, 2013
WEATHER CONDITIONS BREAKOUT
WIND DIRECTION BREAKOUT
WEATHER BY HOUR - SEPTEMBER 25, 2013
[ °C ]   °F
Local TimeTemperatureDewpointHumidityBarometerVisibilityWind DirectionWind SpeedGust SpeedPrecipitationEventsConditions
12:50 AM57.2 °F57.2 °F100 %29.92 inSW (230°)2.3 mphOvercast
1:16 AM57.2 °F55.4 °F94 %29.92 in1.9 miNorth (360°)2.3 mphMostly Cloudy
1:28 AM55.4 °F55.4 °F100 %29.92 in1.4 miNNE (30°)1.2 mphMostly Cloudy
1:50 AM57.2 °F55.4 °F94 %29.92 in1.4 miCalmMostly Cloudy
2:10 AM55.4 °F55.4 °F100 %29.92 in1.4 miSW (230°)1.2 mphFogPatches of Fog
2:22 AM55.4 °F53.6 °F94 %29.92 in1.9 miSouth (170°)1.2 mphFogFog
2:50 AM57.2 °F55.4 °F94 %29.92 in2.5 miWest (270°)1.2 mphMostly Cloudy
3:39 AM55.4 °F55.4 °F100 %29.89 in1.0 miSW (230°)2.3 mphFogPatches of Fog
3:50 AM55.4 °F55.4 °F100 %29.89 in0.6 miSW (230°)1.2 mphFogFog
4:23 AM55.4 °F55.4 °F100 %29.89 in0.2 miNE (50°)2.3 mphFogFog
4:50 AM55.4 °F55.4 °F100 %29.86 in0.4 miNNE (30°)1.2 mphFogFog
5:50 AM55.4 °F55.4 °F100 %29.86 in0.2 miNNE (20°)3.5 mphFogFog
6:50 AM55.0 °F55.0 °F98 %29.88 in0.0 miEast (90°)2.3 mphFogHeavy Fog
6:50 AM55.4 °F55.4 °F100 %29.86 in0.2 miEast (90°)2.3 mphFogFog
7:50 AM55.4 °F55.4 °F100 %29.86 in0.1 miSouth (180°)2.3 mphFogFog
8:50 AM55.4 °F55.4 °F100 %29.86 in0.1 miENE (70°)2.3 mphFogFog
9:28 AM55.4 °F55.4 °F100 %29.86 in1.1 miWest (270°)1.2 mphMostly Cloudy
9:50 AM57.0 °F57.0 °F100 %29.88 in1.0 miNNE (20°)1.2 mphFogLight Fog
9:50 AM57.2 °F57.2 °F100 %29.86 in1.2 miNNE (20°)1.2 mphScattered Clouds
10:28 AM59.0 °F59.0 °F100 %29.89 in2.2 miSouth (180°)1.2 mphMostly Cloudy
10:50 AM59.0 °F59.0 °F100 %29.89 in2.2 miWSW (240°)1.2 mphMostly Cloudy
11:22 AM62.6 °F59.0 °F88 %29.86 in2.8 miNNW (330°)2.3 mphHaze
11:50 AM64.4 °F59.0 °F83 %29.86 in3.1 miEast (80°)3.5 mphHaze
12:31 PM66.2 °F59.0 °F78 %29.86 in3.1 miSE (130°)3.5 mphHaze
12:50 PM66.0 °F58.0 °F69 %29.86 in4.0 miSSW (200°)3.5 mphHaze
12:50 PM66.2 °F59.0 °F78 %29.86 in3.7 miSSW (200°)3.5 mphHaze
1:50 PM68.0 °F59.0 °F73 %29.86 in5.0 miSSE (150°)2.3 mphHaze
2:50 PM69.8 °F59.0 °F68 %29.83 in5.6 miWSW (240°)2.3 mphHaze
3:50 PM70.0 °F57.0 °F55 %29.84 in7.0 miWSW (250°)1.2 mphScattered Clouds
3:50 PM69.8 °F57.2 °F64 %29.83 in6.2 miWSW (250°)1.2 mphMostly Cloudy
4:50 PM68.0 °F59.0 °F73 %29.83 in6.2 miNorth (10°)3.5 mphMostly Cloudy
5:50 PM68.0 °F59.0 °F73 %29.83 in5.0 miNNE (20°)1.2 mphHaze
6:14 PM66.2 °F60.8 °F83 %29.86 in3.7 miSW (230°)6.9 mphRainLight Rain
6:50 PM64.0 °F61.0 °F85 %29.86 in3.0 miWNW (290°)4.6 mphRainLight Rain
6:50 PM64.4 °F60.8 °F88 %29.86 in3.1 miWNW (290°)4.6 mphRainLight Rain
7:27 PM62.6 °F60.8 °F94 %29.86 in2.5 miSSE (150°)2.3 mphRainRain
7:50 PM62.6 °F60.8 °F94 %29.86 in2.5 miSouth (170°)1.2 mphRainRain
8:50 PM60.8 °F59.0 °F94 %29.89 in2.5 miWest (280°)4.6 mphRainRain
9:50 PM59.0 °F56.0 °F88 %29.89 in3.0 miSW (230°)2.3 mphRainLight Drizzle
9:50 PM59.0 °F57.2 °F94 %29.89 in6.2 miSW (230°)2.3 mphMostly Cloudy
10:50 PM59.0 °F57.2 °F94 %29.89 in3.7 miWSW (240°)2.3 mphHaze
11:50 PM59.0 °F59.0 °F100 %29.89 in2.5 miNW (320°)1.2 mphMostly Cloudy
Hourly data recorded from EGVO, located miles away from Hindhead, England







STORIES FROM OUR PARTNERS